Location: Altleiningen
(49.5078°N, 8.0741°E)
Time: 11:54:50
(UTC+00:00)

Cosmos 2278 Rocket - Pass Details

Date: 03 March 2021
Orbit: 841 x 845 km, 71.0° (Epoch: 13 April)

Event Time Altitude Azimuth Distance (km) Brightness Sun altitude
Rises 20:23:26 0° 329° (NNW) 3,416 6.2 -30.6°
Reaches altitude 10° 20:25:54 10° 327° (NNW) 2,476 5.3 -30.9°
Enters shadow 20:30:45 60° 290° (WNW) 967 2.6 -31.6°
